Time,TemperatureF,DewpointF,PressureIn,WindDirection,WindDirectionDegrees,WindSpeedMPH,WindSpeedGustMPH,Humidity,HourlyPrecipIn,Conditions,Clouds,dailyrainin,SolarRadiationWatts/m^2,SoftwareType,DateUTC
2013-04-19 00:02:00,59.0,59.0,-100.00,SSE,159,5.0,6.0,99,0.00,,,0.06,0.000000,,2013-04-19 10:02:00,
2013-04-19 00:13:00,59.0,59.0,-100.00,SSE,159,5.0,6.0,99,0.00,,,0.06,0.000000,,2013-04-19 10:13:00,
2013-04-19 00:23:00,59.0,59.0,-100.00,SSE,159,5.0,6.0,99,0.00,,,0.06,0.000000,,2013-04-19 10:23:00,
2013-04-19 00:33:00,59.0,59.0,-100.00,SSE,159,5.0,6.0,99,0.00,,,0.06,0.000000,,2013-04-19 10:33:00,
2013-04-19 01:02:00,58.0,58.0,-100.00,South,175,0.0,6.0,99,0.00,,,0.06,0.000000,,2013-04-19 11:02:00,
2013-04-19 01:11:00,58.0,58.0,-100.00,South,175,0.0,6.0,99,0.00,,,0.06,0.000000,,2013-04-19 11:11:00,
2013-04-19 01:21:00,58.0,58.0,-100.00,South,175,0.0,6.0,99,0.00,,,0.06,0.000000,,2013-04-19 11:21:00,
2013-04-19 01:32:00,58.0,58.0,-100.00,South,175,0.0,6.0,99,0.00,,,0.06,0.000000,,2013-04-19 11:32:00,
2013-04-19 02:02:00,57.0,55.0,-100.00,SE,130,7.0,8.0,93,0.00,,,0.06,0.000000,,2013-04-19 12:02:00,
2013-04-19 02:12:00,57.0,55.0,-100.00,SE,130,7.0,8.0,93,0.00,,,0.06,0.000000,,2013-04-19 12:12:00,
2013-04-19 02:22:00,57.0,55.0,-100.00,SE,130,7.0,8.0,93,0.00,,,0.06,0.000000,,2013-04-19 12:22:00,
2013-04-19 02:32:00,57.0,55.0,-100.00,SE,130,7.0,8.0,93,0.00,,,0.06,0.000000,,2013-04-19 12:32:00,
2013-04-19 03:01:00,57.0,55.0,-100.00,NNW,341,0.0,9.0,94,0.00,,,0.06,0.000000,,2013-04-19 13:01:00,
2013-04-19 03:11:00,57.0,55.0,-100.00,NNW,341,0.0,9.0,94,0.00,,,0.06,0.000000,,2013-04-19 13:11:00,
2013-04-19 03:21:00,57.0,55.0,-100.00,NNW,341,0.0,9.0,94,0.00,,,0.06,0.000000,,2013-04-19 13:21:00,
2013-04-19 03:32:00,57.0,55.0,-100.00,NNW,341,0.0,9.0,94,0.00,,,0.06,0.000000,,2013-04-19 13:32:00,
2013-04-19 04:01:00,58.0,57.0,-100.00,SE,145,5.0,6.0,95,0.00,,,0.06,0.000000,,2013-04-19 14:01:00,
2013-04-19 04:11:00,58.0,57.0,-100.00,SE,145,5.0,6.0,95,0.00,,,0.06,0.000000,,2013-04-19 14:11:00,
2013-04-19 04:21:00,58.0,57.0,-100.00,SE,145,5.0,6.0,95,0.00,,,0.06,0.000000,,2013-04-19 14:21:00,
2013-04-19 04:31:00,58.0,57.0,-100.00,SE,145,5.0,6.0,95,0.00,,,0.06,0.000000,,2013-04-19 14:31:00,
2013-04-19 05:01:00,55.0,53.0,-100.00,South,184,5.0,8.0,93,0.00,,,0.06,0.000000,,2013-04-19 15:01:00,
2013-04-19 05:12:00,55.0,53.0,-100.00,South,184,5.0,8.0,93,0.00,,,0.06,0.000000,,2013-04-19 15:12:00,
2013-04-19 05:21:00,55.0,53.0,-100.00,South,184,5.0,8.0,93,0.00,,,0.06,0.000000,,2013-04-19 15:21:00,
2013-04-19 05:33:00,55.0,53.0,-100.00,South,184,5.0,8.0,93,0.00,,,0.06,0.000000,,2013-04-19 15:33:00,
2013-04-19 06:03:00,58.0,55.0,-100.00,SE,137,4.0,8.0,90,0.00,,,0.06,0.000000,,2013-04-19 16:03:00,
2013-04-19 06:12:00,58.0,55.0,-100.00,SE,137,4.0,8.0,90,0.00,,,0.06,0.000000,,2013-04-19 16:12:00,
2013-04-19 06:23:00,58.0,55.0,-100.00,SE,137,4.0,8.0,90,0.00,,,0.06,0.000000,,2013-04-19 16:23:00,
2013-04-19 06:32:00,58.0,55.0,-100.00,SE,137,4.0,8.0,90,0.00,,,0.06,0.000000,,2013-04-19 16:32:00,
2013-04-19 07:02:00,58.0,55.0,-100.00,SSE,148,4.0,7.0,89,0.00,,,0.06,17.000000,,2013-04-19 17:02:00,
2013-04-19 07:12:00,58.0,55.0,-100.00,SSE,148,4.0,7.0,89,0.00,,,0.06,17.000000,,2013-04-19 17:12:00,
2013-04-19 07:21:00,58.0,55.0,-100.00,SSE,148,4.0,7.0,89,0.00,,,0.06,17.000000,,2013-04-19 17:21:00,
2013-04-19 07:32:00,58.0,55.0,-100.00,SSE,148,4.0,7.0,89,0.00,,,0.06,17.000000,,2013-04-19 17:32:00,
2013-04-19 08:01:00,67.0,51.0,-100.00,NE,49,4.0,7.0,57,0.00,,,0.06,255.000000,,2013-04-19 18:01:00,
2013-04-19 08:13:00,67.0,51.0,-100.00,NE,49,4.0,7.0,57,0.00,,,0.06,255.000000,,2013-04-19 18:13:00,
2013-04-19 08:22:00,67.0,51.0,-100.00,NE,49,4.0,7.0,57,0.00,,,0.06,255.000000,,2013-04-19 18:22:00,
2013-04-19 08:32:00,67.0,51.0,-100.00,NE,49,4.0,7.0,57,0.00,,,0.06,255.000000,,2013-04-19 18:32:00,
2013-04-19 09:01:00,72.0,57.0,-100.00,North,353,2.0,7.0,59,0.00,,,0.06,559.000000,,2013-04-19 19:01:00,
2013-04-19 09:11:00,72.0,57.0,-100.00,North,353,2.0,7.0,59,0.00,,,0.06,559.000000,,2013-04-19 19:11:00,
2013-04-19 09:21:00,72.0,57.0,-100.00,North,353,2.0,7.0,59,0.00,,,0.06,559.000000,,2013-04-19 19:21:00,
2013-04-19 09:31:00,72.0,57.0,-100.00,North,353,2.0,7.0,59,0.00,,,0.06,559.000000,,2013-04-19 19:31:00,
2013-04-19 10:01:00,72.0,60.0,-100.00,NW,324,7.0,12.0,66,0.00,,,0.06,797.000000,,2013-04-19 20:01:00,
2013-04-19 10:11:00,72.0,60.0,-100.00,NW,324,7.0,12.0,66,0.00,,,0.06,797.000000,,2013-04-19 20:11:00,
2013-04-19 10:22:00,72.0,60.0,-100.00,NW,324,7.0,12.0,66,0.00,,,0.06,797.000000,,2013-04-19 20:22:00,
2013-04-19 10:31:00,72.0,60.0,-100.00,NW,324,7.0,12.0,66,0.00,,,0.06,797.000000,,2013-04-19 20:31:00,
2013-04-19 11:01:00,73.0,54.0,-100.00,NNW,333,7.0,12.0,51,0.00,,,0.06,940.000000,,2013-04-19 21:01:00,
2013-04-19 11:11:00,73.0,54.0,-100.00,NNW,333,7.0,12.0,51,0.00,,,0.06,940.000000,,2013-04-19 21:11:00,
2013-04-19 11:21:00,73.0,54.0,-100.00,NNW,333,7.0,12.0,51,0.00,,,0.06,940.000000,,2013-04-19 21:21:00,
2013-04-19 11:32:00,73.0,54.0,-100.00,NNW,333,7.0,12.0,51,0.00,,,0.06,940.000000,,2013-04-19 21:32:00,
2013-04-19 12:02:00,72.0,61.0,-100.00,NNW,333,9.0,15.0,68,0.00,,,0.06,623.000000,,2013-04-19 22:02:00,
2013-04-19 12:12:00,72.0,61.0,-100.00,NNW,333,9.0,15.0,68,0.00,,,0.06,623.000000,,2013-04-19 22:12:00,
2013-04-19 12:22:00,72.0,61.0,-100.00,NNW,333,9.0,15.0,68,0.00,,,0.06,623.000000,,2013-04-19 22:22:00,
2013-04-19 12:33:00,72.0,61.0,-100.00,NNW,333,9.0,15.0,68,0.00,,,0.06,623.000000,,2013-04-19 22:33:00,
2013-04-19 13:02:00,69.0,63.0,-100.00,NW,322,8.0,16.0,80,0.00,,,0.06,272.000000,,2013-04-19 23:02:00,
2013-04-19 13:11:00,69.0,63.0,-100.00,NW,322,8.0,16.0,80,0.00,,,0.06,272.000000,,2013-04-19 23:11:00,
2013-04-19 13:22:00,69.0,63.0,-100.00,NW,322,8.0,16.0,80,0.00,,,0.06,272.000000,,2013-04-19 23:22:00,
2013-04-19 13:31:00,69.0,63.0,-100.00,NW,322,8.0,16.0,80,0.00,,,0.06,272.000000,,2013-04-19 23:31:00,
2013-04-19 14:02:00,70.0,61.0,-100.00,WNW,298,8.0,14.0,74,0.00,,,0.06,393.000000,,2013-04-20 00:02:00,
2013-04-19 14:12:00,70.0,61.0,-100.00,WNW,298,8.0,14.0,74,0.00,,,0.06,393.000000,,2013-04-20 00:12:00,
2013-04-19 14:21:00,70.0,61.0,-100.00,WNW,298,8.0,14.0,74,0.00,,,0.06,393.000000,,2013-04-20 00:21:00,
2013-04-19 14:31:00,70.0,61.0,-100.00,WNW,298,8.0,14.0,74,0.00,,,0.06,393.000000,,2013-04-20 00:31:00,
2013-04-19 15:01:00,68.0,62.0,-100.00,WNW,293,6.0,15.0,82,0.00,,,0.01,341.000000,,2013-04-20 01:01:00,
2013-04-19 15:11:00,68.0,62.0,-100.00,WNW,293,6.0,15.0,82,0.00,,,0.01,341.000000,,2013-04-20 01:11:00,
2013-04-19 15:21:00,68.0,62.0,-100.00,WNW,293,6.0,15.0,82,0.00,,,0.01,341.000000,,2013-04-20 01:21:00,
2013-04-19 15:32:00,68.0,62.0,-100.00,WNW,293,6.0,15.0,82,0.00,,,0.01,341.000000,,2013-04-20 01:32:00,
2013-04-19 16:01:00,65.0,64.0,-100.00,NW,304,7.0,11.0,96,0.00,,,-99.99,91.000000,,2013-04-20 02:01:00,
2013-04-19 16:11:00,65.0,64.0,-100.00,NW,304,7.0,11.0,96,0.00,,,-99.99,91.000000,,2013-04-20 02:11:00,
2013-04-19 16:21:00,65.0,64.0,-100.00,NW,304,7.0,11.0,96,0.00,,,-99.99,91.000000,,2013-04-20 02:21:00,
2013-04-19 16:32:00,65.0,64.0,-100.00,NW,304,7.0,11.0,96,0.00,,,-99.99,91.000000,,2013-04-20 02:32:00,
2013-04-19 17:01:00,66.0,66.0,-100.00,NW,317,7.0,12.0,99,0.00,,,0.00,60.000000,,2013-04-20 03:01:00,
2013-04-19 17:11:00,66.0,66.0,-100.00,NW,317,7.0,12.0,99,0.00,,,0.00,60.000000,,2013-04-20 03:11:00,
2013-04-19 17:21:00,66.0,66.0,-100.00,NW,317,7.0,12.0,99,0.00,,,0.00,60.000000,,2013-04-20 03:21:00,
2013-04-19 17:33:00,66.0,66.0,-100.00,NW,317,7.0,12.0,99,0.00,,,0.00,60.000000,,2013-04-20 03:33:00,
2013-04-19 18:03:00,65.0,65.0,-100.00,West,261,5.0,13.0,99,0.00,,,0.00,66.000000,,2013-04-20 04:03:00,
2013-04-19 18:12:00,65.0,65.0,-100.00,West,261,5.0,13.0,99,0.00,,,0.00,66.000000,,2013-04-20 04:12:00,
2013-04-19 18:23:00,65.0,65.0,-100.00,West,261,5.0,13.0,99,0.00,,,0.00,66.000000,,2013-04-20 04:23:00,
2013-04-19 18:32:00,65.0,65.0,-100.00,West,261,5.0,13.0,99,0.00,,,0.00,66.000000,,2013-04-20 04:32:00,
2013-04-19 19:02:00,65.0,64.0,-100.00,SSW,208,0.0,9.0,97,0.00,,,0.00,24.000000,,2013-04-20 05:02:00,
2013-04-19 19:12:00,65.0,64.0,-100.00,SSW,208,0.0,9.0,97,0.00,,,0.00,24.000000,,2013-04-20 05:12:00,
2013-04-19 19:21:00,65.0,64.0,-100.00,SSW,208,0.0,9.0,97,0.00,,,0.00,24.000000,,2013-04-20 05:21:00,
2013-04-19 19:32:00,65.0,64.0,-100.00,SSW,208,0.0,9.0,97,0.00,,,0.00,24.000000,,2013-04-20 05:32:00,
2013-04-19 20:01:00,64.0,64.0,-100.00,SSW,202,0.0,6.0,99,0.00,,,0.00,0.000000,,2013-04-20 06:01:00,
2013-04-19 20:12:00,64.0,64.0,-100.00,SSW,202,0.0,6.0,99,0.00,,,0.00,0.000000,,2013-04-20 06:12:00,
2013-04-19 20:21:00,64.0,64.0,-100.00,SSW,202,0.0,6.0,99,0.00,,,0.00,0.000000,,2013-04-20 06:21:00,
2013-04-19 20:31:00,64.0,64.0,-100.00,SSW,202,0.0,6.0,99,0.00,,,0.00,0.000000,,2013-04-20 06:31:00,
2013-04-19 21:01:00,65.0,65.0,-100.00,WSW,258,2.0,5.0,99,0.00,,,0.00,0.000000,,2013-04-20 07:01:00,
2013-04-19 21:11:00,65.0,65.0,-100.00,WSW,258,2.0,5.0,99,0.00,,,0.00,0.000000,,2013-04-20 07:11:00,
2013-04-19 21:21:00,65.0,65.0,-100.00,WSW,258,2.0,5.0,99,0.00,,,0.00,0.000000,,2013-04-20 07:21:00,
2013-04-19 21:31:00,65.0,65.0,-100.00,WSW,258,2.0,5.0,99,0.00,,,0.00,0.000000,,2013-04-20 07:31:00,
2013-04-19 22:01:00,63.0,63.0,-100.00,SSE,168,0.0,6.0,99,0.00,,,0.00,0.000000,,2013-04-20 08:01:00,
2013-04-19 22:11:00,63.0,63.0,-100.00,SSE,168,0.0,6.0,99,0.00,,,0.00,0.000000,,2013-04-20 08:11:00,
2013-04-19 22:21:00,63.0,63.0,-100.00,SSE,168,0.0,6.0,99,0.00,,,0.00,0.000000,,2013-04-20 08:21:00,
2013-04-19 22:31:00,63.0,63.0,-100.00,SSE,168,0.0,6.0,99,0.00,,,0.00,0.000000,,2013-04-20 08:31:00,
2013-04-19 23:01:00,64.0,64.0,-100.00,SSE,163,4.0,6.0,99,0.00,,,0.00,0.000000,,2013-04-20 09:01:00,
2013-04-19 23:12:00,64.0,64.0,-100.00,SSE,163,4.0,6.0,99,0.00,,,0.00,0.000000,,2013-04-20 09:12:00,
2013-04-19 23:21:00,64.0,64.0,-100.00,SSE,163,4.0,6.0,99,0.00,,,0.00,0.000000,,2013-04-20 09:21:00,
2013-04-19 23:32:00,64.0,64.0,-100.00,SSE,163,4.0,6.0,99,0.00,,,0.00,0.000000,,2013-04-20 09:32:00,